LA9NKA Weather Reports


time (UTC)temp
C
wind
direction
speed
KPH
gust
KPH
rain 1hr
cm
rain 24hr
cm
rain mn
cm
humidity
%
barometer
mb
20260503034033 -17 323 3.2 8.0 0.00 0.15 0.00 86 1010.7
20260503033032 -17 322 3.2 12.9 0.00 0.15 0.00 86 1010.6
20260503032131 -17 321 1.6 4.8 0.00 0.15 0.00 86 1010.5
20260503031028 -17 338 1.6 4.8 0.00 0.15 0.00 86 1010.4
20260503030027 -17 348 1.6 4.8 0.00 0.15 0.00 86 1010.5
20260503025026 -17 348 1.6 6.4 0.00 0.15 0.00 86 1010.5
20260503024025 -17 355 1.6 6.4 0.00 0.15 0.00 86 1010.5
20260503023051 -17 355 1.6 6.4 0.00 0.15 0.00 86 1010.6
20260503022050 -17 6 1.6 6.4 0.00 0.15 0.00 86 1010.5
20260503021147 -17 333 0.0 4.8 0.00 0.15 0.00 86 1010.5
20260503020044 -17 348 1.6 6.4 0.00 0.15 0.00 86 1010.4
20260503015041 -17 290 1.6 6.4 0.00 0.15 0.00 86 1010.5
20260503014140 -17 333 1.6 4.8 0.00 0.15 0.00 86 1010.5
20260503013209 -17 352 1.6 6.4 0.00 0.15 0.00 86 1010.5
20260503012035 -17 3 1.6 4.8 0.00 0.15 0.00 86 1010.6
20260503011035 -17 350 1.6 6.4 0.00 0.15 0.00 86 1010.7
20260503010034 -17 354 1.6 6.4 0.00 0.15 0.00 86 1010.7
20260503005133 -17 357 1.6 6.4 0.00 0.15 0.00 86 1010.7
20260503004029 -17 357 1.6 8.0 0.00 0.15 0.00 86 1010.8
20260503003055 -17 341 1.6 6.4 0.00 0.15 0.00 86 1010.7
20260503002053 -17 345 1.6 4.8 0.00 0.15 0.00 86 1010.7
20260503001052 -17 346 1.6 4.8 0.00 0.15 0.00 86 1010.8
20260503000051 -17 331 0.0 4.8 0.00 0.15 0.00 86 1010.9
20260502235143 -17 342 1.6 4.8 0.00 0.15 0.00 86 1011.0
20260502234312 -17 8 1.6 4.8 0.00 0.15 0.00 86 1011.0
20260502233039 -17 342 1.6 4.8 0.00 0.15 0.00 86 1011.0
20260502232038 -17 3 3.2 6.4 0.00 0.15 0.00 86 1011.0
20260502231032 -17 23 0.0 4.8 0.00 0.15 0.00 86 1011.0
20260502230029 -17 6 1.6 11.3 0.00 0.15 0.00 86 1011.0
20260502225028 -17 348 1.6 8.0 0.00 0.15 0.00 86 1011.0
20260502224024 -17 344 3.2 6.4 0.00 0.15 0.00 86 1010.9
20260502223024 -17 351 3.2 12.9 0.00 0.15 0.00 86 1010.9
20260502222050 -17 352 3.2 8.0 0.00 0.15 0.00 86 1010.9
20260502221020 -17 330 1.6 8.0 0.00 0.15 0.00 86 1011.0
20260502220049 -17 354 3.2 6.4 0.00 0.15 0.00 86 1011.1
20260502215318 -17 328 3.2 11.3 0.00 0.15 0.15 86 1011.2
20260502214047 -17 345 3.2 8.0 0.00 0.15 0.15 86 1011.2
20260502213046 -17 349 1.6 6.4 0.00 0.15 0.15 86 1011.1
20260502212045 -17 12 1.6 8.0 0.00 0.15 0.15 86 1011.2
20260502211044 -17 22 3.2 6.4 0.00 0.15 0.15 86 1011.1
20260502210044 -17 338 3.2 8.0 0.00 0.15 0.15 86 1011.0
20260502205021 -17 9 3.2 11.3 0.00 0.15 0.15 86 1011.1
20260502204121 -17 354 3.2 8.0 0.00 0.15 0.15 86 1011.1
20260502203020 -17 11 3.2 8.0 0.00 0.15 0.15 86 1011.0
20260502202049 -17 3 3.2 8.0 0.00 0.15 0.15 86 1010.9
20260502201048 -17 348 3.2 12.9 0.00 0.15 0.15 86 1010.9
20260502200047 -17 340 3.2 8.0 0.00 0.15 0.15 86 1010.9
20260502195046 -17 335 1.6 8.0 0.00 0.15 0.15 86 1010.7
20260502194045 -17 340 1.6 6.4 0.00 0.15 0.15 86 1010.7
20260502193044 -17 336 3.2 12.9 0.00 0.15 0.15 86 1010.7
20260502192041 -17 337 3.2 12.9 0.00 0.15 0.15 86 1010.7
20260502191037 -17 326 3.2 8.0 0.00 0.15 0.15 86 1010.7
20260502190037 -17 306 1.6 4.8 0.00 0.15 0.15 86 1010.6
20260502185036 -17 338 1.6 6.4 0.00 0.15 0.15 86 1010.6
20260502184135 -17 331 1.6 8.0 0.00 0.15 0.15 86 1010.6
20260502182033 -17 338 3.2 8.0 0.00 0.15 0.15 86 1010.7
20260502181228 -17 333 1.6 8.0 0.00 0.15 0.15 86 1010.7
20260502164047 -17 284 4.8 8.0 0.00 0.15 0.15 86 1010.9
20260502163016 -17 298 3.2 6.4 0.00 0.15 0.15 86 1011.1
20260502162045 -17 277 6.4 8.0 0.00 0.15 0.15 86 1011.1
20260502161042 -17 274 3.2 6.4 0.00 0.15 0.15 86 1011.2
20260502152037 -17 284 3.2 6.4 0.00 0.15 0.15 86 1011.5
20260502151234 -17 276 4.8 8.0 0.00 0.15 0.15 86 1011.6
20260502123046 -17 161 1.6 6.4 0.00 0.15 0.15 86 1012.0
20260502122044 -17 213 1.6 6.4 0.00 0.15 0.15 86 1012.1
20260502121043 -17 176 1.6 6.4 0.00 0.15 0.15 86 1012.1
20260502115142 -17 151 3.2 6.4 0.00 0.15 0.15 86 1012.1
20260502114141 -17 122 3.2 8.0 0.00 0.15 0.15 86 1012.2
20260502113040 -17 149 6.4 11.3 0.00 0.15 0.15 86 1012.1
20260502112036 -17 132 4.8 12.9 0.00 0.15 0.15 86 1012.2
20260502111035 -17 155 3.2 6.4 0.00 0.15 0.15 86 1012.2
20260502110035 -17 137 4.8 11.3 0.00 0.15 0.15 86 1012.3
20260502105133 -17 151 4.8 12.9 0.00 0.15 0.15 86 1012.3
20260502104029 -17 169 3.2 11.3 0.00 0.15 0.15 86 1012.5
20260502103025 -17 158 1.6 8.0 0.00 0.15 0.15 86 1012.5
20260502102050 -17 123 1.6 6.4 0.00 0.15 0.15 86 1012.3
20260502101249 -17 139 3.2 8.0 0.00 0.15 0.15 86 1012.3
20260502091044 -17 206 1.6 4.8 0.00 0.15 0.15 86 1012.3
20260502071056 -17 135 1.6 1.6 0.00 0.10 0.10 86 1012.1
20260502070052 -17 136 3.2 6.4 0.00 0.10 0.10 86 1012.0
20260502065050 -17 88 1.6 4.8 0.00 0.10 0.10 86 1011.9
20260502064119 -17 68 0.0 4.8 0.00 0.10 0.10 86 1011.9
20260502063117 -17 68 0.0 1.6 0.00 0.10 0.10 86 1012.0
20260502062046 -17 68 1.6 1.6 0.00 0.10 0.10 86 1012.0
20260502061046 -17 68 0.0 1.6 0.00 0.10 0.10 86 1012.3
20260502060045 -17 0.0 0.0 0.00 0.10 0.10 86 1012.4
20260502055044 -17 68 0.0 1.6 0.03 0.10 0.10 86 1012.5
20260502054413 -17 68 0.0 1.6 0.05 0.10 0.10 86 1012.7
20260502053410 -17 0.0 1.6 0.08 0.10 0.10 86 1012.5
20260502052209 -17 68 1.6 4.8 0.08 0.10 0.10 86 1012.7
20260502051135 -17 144 3.2 4.8 0.10 0.10 0.10 86 1012.8
20260502050029 -17 149 1.6 1.6 0.10 0.13 0.10 86 1012.8
20260502045128 -17 155 3.2 6.4 0.08 0.10 0.08 86 1012.9
20260502044227 -17 234 3.2 8.0 0.05 0.08 0.05 86 1013.1
20260502043026 -17 157 1.6 6.4 0.03 0.05 0.03 86 1013.0
20260502042025 -17 187 3.2 8.0 0.03 0.05 0.03 86 1013.0
20260502041024 -17 238 4.8 11.3 0.00 0.03 0.00 86 1013.2
20260502040023 -17 221 4.8 11.3 0.00 0.03 0.00 86 1013.1
20260502035022 -17 234 4.8 11.3 0.00 0.03 0.00 86 1013.1